Location: Aufkirchen
(47.9603°N, 11.3653°E)
Time: 17:21:33
(UTC+01:00)

Transit 4A - Pass Details

Date: 01 December 2020
Orbit: 864 x 980 km, 66.8° (Epoch: 26 January)

Event Time Altitude Azimuth Distance (km) Brightness Sun altitude
Rises 10:58:57 0° 285° (WNW) 3,675 10.7 18.6°
Reaches altitude 10° 11:02:40 10° 306° (NW) 2,736 10.0 18.8°
Maximum altitude 11:06:33 16° 344° (NNW) 2,307 9.5 19.0°
Drops below altitude 10° 11:10:26 10° 21° (NNE) 2,737 9.9 19.1°
Sets 11:14:09 0° 42° (NE) 3,677 10.7 19.3°
